352P/Skiff (2017)

Japanese version
Home page
Updated on July 7, 2017

---------------------------------------------------------------------

* Profile

Designation 352P/2017 L1
Recovery Date June 5, 2017
Magnitude 17.8 mag
Recoverer H. Sato (Tokyo, Japan)

* Pictures

* Orbital Elements

Epoch 2017 June 16.0 TT = JDT 2457920.5
T 2017 June 21.58850 TT                                 MPCW
q   2.5358900            (2000.0)            P               Q
n   0.05779092     Peri.  309.07753     +0.89773245     +0.40673436
a   6.6256679      Node    28.15793     -0.20249579     +0.72216301
e   0.6172627      Incl.   21.01680     -0.39124405     +0.55950670
P  17.05
From 171 observations 2000 Aug. 26-2017 June 6, mean residual 0".8.

* Finding Charts

* Magnitudes Graph

        m1 = 0.0 + 5 log d + 35 log r

---------------------------------------------------------------------

The orbital elements are published on M.P.E.C. 2017-L51.
The charts are made with StellaNavigator Ver.10 (AstroArts).
The magnitudes graphs are made with Comet for Windows.

---------------------------------------------------------------------

Copyright(C) Seiichi Yoshida (comet@aerith.net). All rights reserved.